VE3KSR Weather Reports


Display with metric or nautical units.
time (UTC)temp
F
wind
direction
speed
MPH
gust
MPH
rain 1hr
in
rain 24hr
in
rain mn
in
humidity
%
barometer
mb
20141122232009 36 255 17.0 24.0 0.13 0.00 0.00 96 1011.2
20141122231507 36 256 16.0 23.0 0.13 0.00 0.00 96 1011.4
20141122231008 36 256 16.0 23.0 0.13 0.00 0.00 96 1011.3
20141122230510 36 291 16.0 21.0 0.13 0.00 0.00 96 1011.1
20141122230007 36 293 16.0 23.0 0.13 0.00 0.00 96 1011.4
20141122225508 36 291 16.0 24.0 0.13 0.00 0.00 96 1011.4
20141122225008 36 259 16.0 20.0 0.13 0.00 0.00 96 1011.3
20141122224508 36 288 16.0 21.0 0.13 0.00 0.00 96 1011.3
20141122224008 36 302 18.0 25.0 0.13 0.00 0.00 95 1011.3
20141122223508 36 259 17.0 23.0 0.13 0.00 0.00 95 1011.2
20141122223008 36 262 20.0 28.0 0.13 0.00 0.00 95 1011.3
20141122222509 36 246 18.0 25.0 0.13 0.00 0.00 95 1011.3
20141122222009 35 293 15.0 21.0 0.13 0.00 0.00 95 1011.3
20141122221508 35 290 17.0 23.0 0.13 0.00 0.00 94 1011.5
20141122221008 35 260 17.0 23.0 0.13 0.00 0.00 94 1011.3
20141122220508 35 293 15.0 24.0 0.13 0.00 0.00 94 1011.3
20141122220008 35 298 15.0 22.0 0.13 0.00 0.00 94 1011.4
20141122215508 35 291 17.0 25.0 0.13 0.00 0.00 94 1011.5
20141122215008 35 273 16.0 21.0 0.13 0.00 0.00 93 1011.5
20141122214508 35 300 16.0 21.0 0.13 0.00 0.00 92 1011.5
20141122214007 35 294 15.0 22.0 0.13 0.00 0.00 90 1011.5
20141122213508 35 260 17.0 22.0 0.13 0.00 0.00 95 1011.5
20141122213009 35 304 18.0 22.0 0.13 0.00 0.00 95 1011.6
20141122212508 35 305 16.0 22.0 0.13 0.00 0.00 95 1011.7
20141122212010 35 290 14.0 20.0 0.13 0.00 0.00 95 1011.5
20141122211507 35 287 15.0 22.0 0.13 0.00 0.00 96 1011.8
20141122211007 35 290 16.0 22.0 0.13 0.00 0.00 96 1011.9
20141122210508 35 266 17.0 23.0 0.13 0.00 0.00 96 1011.8
20141122210010 35 270 17.0 25.0 0.13 0.00 0.00 96 1011.6
20141122205508 35 263 16.0 22.0 0.13 0.00 0.00 96 1011.7
20141122205008 35 257 19.0 25.0 0.13 0.00 0.00 97 1011.7
20141122204507 35 269 17.0 22.0 0.13 0.00 0.00 97 1011.6
20141122204007 34 301 17.0 30.0 0.13 0.00 0.00 97 1011.7
20141122203509 34 284 19.0 26.0 0.13 0.00 0.00 97 1012.0
20141122203009 34 266 17.0 23.0 0.13 0.00 0.00 97 1011.9
20141122202508 34 267 16.0 22.0 0.13 0.00 0.00 96 1011.7
20141122202008 34 253 16.0 23.0 0.13 0.00 0.00 96 1011.7
20141122201509 34 285 17.0 28.0 0.13 0.00 0.00 96 1011.8
20141122201008 34 298 18.0 27.0 0.13 0.00 0.00 96 1011.8
20141122200508 34 297 15.0 26.0 0.13 0.00 0.00 95 1012.0
20141122195008 34 259 16.0 24.0 0.13 0.00 0.00 94 1012.3
20141122194508 34 301 17.0 25.0 0.13 0.00 0.00 94 1012.2
20141122194008 34 267 18.0 23.0 0.13 0.00 0.00 94 1012.3
20141122193508 34 298 15.0 22.0 0.13 0.00 0.00 95 1012.2
20141122193008 34 302 15.0 21.0 0.13 0.00 0.00 95 1012.3
20141122192508 34 270 17.0 26.0 0.13 0.00 0.00 95 1012.3
20141122192008 34 293 16.0 22.0 0.13 0.00 0.00 95 1012.4
20141122191509 34 256 17.0 23.0 0.13 0.00 0.00 96 1012.4
20141122191008 34 302 17.0 28.0 0.13 0.00 0.00 96 1012.5
20141122190508 34 295 16.0 23.0 0.13 0.00 0.00 96 1012.5
20141122190008 34 253 16.0 26.0 0.13 0.00 0.00 96 1012.7
20141122185510 34 260 16.0 23.0 0.13 0.00 0.00 96 1012.9
20141122185008 34 262 16.0 26.0 0.13 0.00 0.00 96 1012.7
20141122184509 34 281 16.0 20.0 0.13 0.00 0.00 96 1012.9
20141122184008 34 298 17.0 23.0 0.13 0.00 0.00 96 1012.9
20141122183508 34 300 16.0 24.0 0.13 0.00 0.00 95 1012.9
20141122183008 34 284 19.0 25.0 0.13 0.00 0.00 95 1013.1
20141122182508 33 277 18.0 24.0 0.13 0.00 0.00 95 1013.1
20141122182008 33 281 20.0 30.0 0.13 0.00 0.00 95 1013.2
20141122181508 33 252 19.0 25.0 0.13 0.00 0.00 93 1013.3
20141122181008 33 263 20.0 27.0 0.13 0.00 0.00 93 1013.1
20141122180508 33 264 20.0 25.0 0.13 0.00 0.00 94 1013.0
20141122180011 33 260 19.0 26.0 0.13 0.00 0.00 96 1013.1
20141122175509 33 266 22.0 30.0 0.13 0.00 0.00 96 1013.3
20141122175009 33 271 23.0 29.0 0.13 0.00 0.00 96 1013.6
20141122174508 33 262 19.0 28.0 0.13 0.00 0.00 96 1013.7
20141122174008 33 262 18.0 24.0 0.13 0.00 0.00 95 1013.9
20141122173509 33 297 18.0 24.0 0.13 0.00 0.00 95 1013.9
20141122173008 33 285 15.0 27.0 0.13 0.00 0.00 95 1014.1
20141122172508 33 291 16.0 24.0 0.13 0.00 0.00 95 1014.3
20141122172010 33 255 18.0 26.0 0.13 0.00 0.00 95 1014.4
20141122171513 33 257 19.0 28.0 0.13 0.00 0.00 94 1014.2
20141122171009 33 273 21.0 30.0 0.13 0.00 0.00 94 1014.4
20141122170510 33 266 22.0 29.0 0.13 0.00 0.00 94 1014.4
20141122170008 33 260 25.0 31.0 0.13 0.00 0.00 93 1014.6
20141122165512 33 260 16.0 22.0 0.13 0.00 0.00 92 1014.6
20141122165008 33 264 19.0 26.0 0.13 0.00 0.00 92 1014.7
20141122164508 33 288 19.0 26.0 0.13 0.00 0.00 92 1014.8
20141122164009 32 252 20.0 28.0 0.13 0.00 0.00 92 1015.0
20141122163508 32 262 21.0 28.0 0.13 0.00 0.00 91 1015.0
20141122163008 32 259 23.0 30.0 0.13 0.00 0.00 92 1015.1
20141122162508 32 263 21.0 28.0 0.13 0.00 0.00 94 1015.2
20141122162008 32 262 22.0 29.0 0.13 0.00 0.00 96 1015.3
20141122161508 32 256 19.0 26.0 0.13 0.00 0.00 96 1015.6
20141122161010 31 248 19.0 28.0 0.13 0.00 0.00 96 1015.5
20141122160509 31 253 19.0 25.0 0.13 0.00 0.00 96 1015.5
20141122160009 31 240 18.0 23.0 0.13 0.00 0.00 95 1015.7
20141122155509 31 248 16.0 23.0 0.13 0.00 0.00 95 1015.9
20141122155008 31 249 20.0 28.0 0.13 0.00 0.00 95 1016.1
20141122154508 31 252 19.0 26.0 0.13 0.00 0.00 96 1016.1
20141122154008 31 245 19.0 24.0 0.13 0.00 0.00 96 1016.1
20141122153508 31 257 20.0 27.0 0.13 0.00 0.00 96 1016.4
20141122153009 31 246 19.0 24.0 0.13 0.00 0.00 96 1016.6
20141122152508 31 253 19.0 27.0 0.13 0.00 0.00 96 1016.6
20141122152010 31 243 20.0 26.0 0.13 0.00 0.00 95 1016.8
20141122151508 31 249 19.0 24.0 0.13 0.00 0.00 95 1016.7
20141122151008 31 250 21.0 26.0 0.13 0.00 0.00 95 1016.7
20141122150508 31 246 22.0 28.0 0.13 0.00 0.00 95 1016.8
20141122150011 31 240 18.0 23.0 0.13 0.00 0.00 95 1016.9
20141122145508 31 248 18.0 25.0 0.13 0.00 0.00 95 1017.0
20141122145011 31 255 22.0 27.0 0.13 0.00 0.00 95 1017.1
20141122144509 31 243 22.0 29.0 0.13 0.00 0.00 95 1017.1
20141122144009 30 246 18.0 24.0 0.13 0.00 0.00 94 1017.1
20141122143508 30 243 19.0 27.0 0.13 0.00 0.00 94 1017.2
20141122143009 30 249 17.0 21.0 0.13 0.00 0.00 94 1017.4
20141122142509 30 238 18.0 23.0 0.13 0.00 0.00 93 1017.4
20141122142013 30 252 19.0 25.0 0.13 0.00 0.00 93 1017.6
20141122141508 30 240 20.0 25.0 0.13 0.00 0.00 93 1017.7
20141122141008 30 240 18.0 25.0 0.13 0.00 0.00 93 1017.6
20141122140508 30 245 18.0 24.0 0.13 0.00 0.00 93 1017.6
20141122140008 30 250 17.0 23.0 0.13 0.00 0.00 93 1017.9
20141122135509 30 238 17.0 25.0 0.13 0.00 0.00 93 1017.7
20141122135008 29 224 16.0 24.0 0.13 0.00 0.00 93 1018.1
20141122134509 29 246 18.0 22.0 0.13 0.00 0.00 93 1018.1
20141122134009 29 248 18.0 22.0 0.13 0.00 0.00 93 1018.1
20141122133509 29 250 17.0 22.0 0.13 0.00 0.00 93 1018.1
20141122133010 29 249 18.0 23.0 0.13 0.00 0.00 93 1018.3
20141122132508 28 256 16.0 19.0 0.13 0.00 0.00 93 1018.3
20141122132008 28 246 17.0 21.0 0.13 0.00 0.00 93 1018.4
20141122131508 28 248 17.0 25.0 0.13 0.00 0.00 93 1018.7
20141122131008 27 252 17.0 22.0 0.13 0.00 0.00 93 1018.8
20141122130511 27 252 17.0 19.0 0.13 0.00 0.00 93 1019.0
20141122130008 27 257 17.0 23.0 0.13 0.00 0.00 92 1019.0
20141122125508 27 238 17.0 21.0 0.13 0.00 0.00 92 1019.2
20141122125008 27 248 16.0 21.0 0.13 0.00 0.00 92 1019.2
20141122124510 27 243 19.0 21.0 0.13 0.00 0.00 92 1019.1
20141122124009 26 252 18.0 23.0 0.13 0.00 0.00 92 1019.3
20141122123509 26 250 19.0 24.0 0.13 0.00 0.00 92 1019.6
20141122123008 26 252 21.0 25.0 0.13 0.00 0.00 92 1019.7
20141122122509 26 266 20.0 24.0 0.13 0.00 0.00 93 1019.8
20141122122009 26 252 19.0 24.0 0.13 0.00 0.00 93 1019.9
20141122121509 25 260 19.0 23.0 0.13 0.00 0.00 94 1019.8
20141122121009 25 250 18.0 21.0 0.13 0.00 0.00 94 1019.8
20141122120509 25 243 17.0 20.0 0.13 0.00 0.00 94 1019.7
20141122120009 24 264 16.0 18.0 0.13 0.00 0.00 94 1019.6
20141122115509 24 266 16.0 18.0 0.13 0.00 0.00 94 1019.8
20141122115010 24 259 16.0 21.0 0.13 0.00 0.00 94 1019.8
20141122114509 24 242 17.0 19.0 0.13 0.00 0.00 94 1019.9
20141122114010 23 260 17.0 21.0 0.13 0.00 0.00 94 1020.0
20141122113510 23 262 16.0 19.0 0.13 0.00 0.00 94 1020.1
20141122113009 23 256 15.0 18.0 0.13 0.00 0.00 94 1020.2
20141122112709 22 255 15.0 19.0 0.13 0.00 0.00 94 1020.4
20141122112509 23 263 15.0 18.0 0.13 0.00 0.00 94 1020.3
20141122112011 23 256 16.0 18.0 0.13 0.00 0.00 94 1020.4
20141122111512 22 266 16.0 21.0 0.13 0.00 0.00 94 1020.7
20141122111009 22 255 15.0 19.0 0.13 0.00 0.00 94 1020.4
20141122110510 22 260 15.0 19.0 0.13 0.00 0.00 94 1020.5
20141122110009 22 260 16.0 18.0 0.13 0.00 0.00 93 1020.4
20141122105509 22 255 14.0 18.0 0.13 0.00 0.00 93 1020.4
20141122105009 22 253 15.0 19.0 0.13 0.00 0.00 93 1020.7
20141122104509 22 249 14.0 18.0 0.13 0.00 0.00 93 1020.7
20141122104009 22 252 15.0 17.0 0.13 0.00 0.00 93 1020.8
20141122103510 22 231 14.0 17.0 0.13 0.00 0.00 92 1020.8
20141122103009 23 257 15.0 18.0 0.13 0.00 0.00 92 1020.9
20141122102510 23 246 17.0 22.0 0.13 0.00 0.00 92 1021.0
20141122102009 23 253 16.0 20.0 0.13 0.00 0.00 92 1021.2
20141122101511 23 253 17.0 21.0 0.13 0.00 0.00 92 1021.2
20141122101009 23 262 17.0 21.0 0.13 0.00 0.00 92 1021.3
20141122100513 23 255 17.0 21.0 0.13 0.00 0.00 92 1021.5
20141122100009 23 252 19.0 23.0 0.13 0.00 0.00 91 1021.6
20141122095509 23 256 18.0 22.0 0.13 0.00 0.00 91 1021.7
20141122095009 23 269 18.0 21.0 0.13 0.00 0.00 91 1021.7
20141122094509 23 252 17.0 23.0 0.13 0.00 0.00 91 1021.9
20141122094009 23 248 18.0 25.0 0.13 0.00 0.00 90 1022.0
20141122093509 23 262 19.0 23.0 0.13 0.00 0.00 90 1022.0
20141122093009 23 262 19.0 25.0 0.13 0.00 0.00 89 1022.2
20141122092509 23 262 19.0 23.0 0.13 0.00 0.00 88 1022.3
20141122092011 23 262 17.0 22.0 0.13 0.00 0.00 88 1022.4
20141122091510 23 260 21.0 25.0 0.13 0.00 0.00 88 1022.4
20141122091009 23 260 19.0 24.0 0.13 0.00 0.00 88 1022.5
20141122090509 23 259 19.0 23.0 0.13 0.00 0.00 89 1022.7
20141122090009 23 267 19.0 25.0 0.13 0.00 0.00 89 1022.6
20141122085509 22 267 19.0 25.0 0.13 0.00 0.00 90 1022.7
20141122085009 22 264 19.0 25.0 0.13 0.00 0.00 90 1022.8
20141122084510 22 263 19.0 24.0 0.13 0.00 0.00 91 1022.7
20141122084009 22 257 18.0 23.0 0.13 0.00 0.00 91 1023.0
20141122083510 22 266 19.0 26.0 0.13 0.00 0.00 91 1023.0
20141122083009 22 260 19.0 23.0 0.13 0.00 0.00 91 1023.0
20141122082510 22 264 20.0 25.0 0.13 0.00 0.00 92 1023.1
20141122082009 22 262 19.0 24.0 0.13 0.00 0.00 92 1023.1
20141122081511 22 266 18.0 23.0 0.13 0.00 0.00 92 1023.3
20141122081009 22 248 17.0 23.0 0.13 0.00 0.00 93 1023.4
20141122080509 22 278 17.0 21.0 0.13 0.00 0.00 93 1023.4
20141122080010 21 267 16.0 21.0 0.13 0.00 0.00 93 1023.6
20141122075509 21 257 16.0 21.0 0.13 0.00 0.00 93 1023.7
20141122075009 21 262 16.0 20.0 0.13 0.00 0.00 93 1023.7
20141122074510 21 264 16.0 22.0 0.13 0.00 0.00 93 1023.7
20141122074009 21 277 17.0 21.0 0.13 0.00 0.00 94 1023.7
20141122073510 21 259 18.0 27.0 0.13 0.00 0.00 93 1023.9
20141122073011 21 264 20.0 26.0 0.13 0.00 0.00 94 1023.8
20141122072509 21 270 19.0 25.0 0.13 0.00 0.00 94 1023.8
20141122072011 20 263 19.0 23.0 0.13 0.00 0.00 94 1023.7
20141122071510 20 274 16.0 25.0 0.13 0.00 0.00 95 1023.9
20141122071009 20 253 14.0 20.0 0.13 0.00 0.00 95 1024.0
20141122070509 20 267 17.0 21.0 0.13 0.00 0.00 95 1024.0
20141122070009 20 264 16.0 22.0 0.13 0.00 0.00 95 1024.0
20141122065509 19 274 15.0 20.0 0.13 0.00 0.00 95 1024.3
20141122065009 19 267 14.0 17.0 0.13 0.00 0.00 96 1024.4
20141122064509 19 270 12.0 17.0 0.13 0.00 0.00 95 1024.6
20141122064009 19 267 13.0 16.0 0.13 0.00 0.00 95 1024.5
20141122063509 19 263 11.0 17.0 0.13 0.00 0.00 95 1024.5
20141122063009 18 263 15.0 18.0 0.13 0.00 0.00 95 1024.6
20141122062511 18 257 13.0 17.0 0.13 0.00 0.00 95 1024.7
20141122062009 18 257 13.0 17.0 0.13 0.00 0.00 95 1024.7
20141122061511 18 263 13.0 17.0 0.13 0.00 0.00 95 1024.8
20141122061013 17 273 12.0 19.0 0.13 0.00 0.00 95 1024.9
20141122060509 17 269 13.0 19.0 0.13 0.00 0.00 95 1024.9
20141122060009 17 267 14.0 20.0 0.13 0.00 0.00 95 1025.1
20141122055509 17 264 14.0 20.0 0.13 0.00 0.00 95 1025.1
20141122055009 16 273 14.0 19.0 0.13 0.00 0.00 95 1025.3
20141122054509 16 271 14.0 19.0 0.13 0.00 0.00 95 1025.3
20141122054009 16 273 12.0 15.0 0.13 0.00 0.00 95 1025.4
20141122053513 16 269 11.0 13.0 0.13 0.00 0.00 95 1025.5
20141122053010 16 267 12.0 16.0 0.13 0.00 0.00 95 1025.6
20141122052509 16 269 13.0 18.0 0.13 0.00 0.00 95 1025.6
20141122052009 16 274 13.0 17.0 0.13 0.00 0.00 95 1025.6
20141122051509 16 267 8.0 13.0 0.13 0.00 0.00 95 1025.6
20141122051010 16 264 11.0 16.0 0.13 0.00 0.00 95 1025.6
20141122050509 15 274 11.0 16.0 0.13 0.00 0.00 94 1025.6
20141122050010 15 266 12.0 17.0 0.13 0.00 0.00 95 1025.5
20141122045511 15 259 13.0 18.0 0.13 0.00 0.00 94 1025.6
20141122045009 15 264 12.0 18.0 0.13 0.00 0.00 94 1025.6
20141122044509 15 277 15.0 22.0 0.13 0.00 0.00 95 1025.7
20141122044011 15 281 15.0 22.0 0.13 0.00 0.00 94 1025.7
20141122043510 15 300 14.0 20.0 0.13 0.00 0.00 94 1025.7
20141122043009 15 305 14.0 20.0 0.13 0.00 0.00 94 1025.8
20141122042509 15 276 13.0 18.0 0.13 0.00 0.00 94 1025.8
20141122042011 15 291 12.0 18.0 0.13 0.00 0.00 94 1025.9
20141122041510 15 298 12.0 18.0 0.13 0.00 0.00 94 1025.8
20141122041010 15 305 13.0 19.0 0.13 0.00 0.00 94 1025.9
20141122040512 15 311 13.0 20.0 0.13 0.00 0.00 94 1025.9
20141122040010 14 271 14.0 19.0 0.13 0.00 0.00 94 1026.1
20141122035510 14 302 13.0 20.0 0.13 0.00 0.00 93 1026.1
20141122035010 14 309 15.0 22.0 0.13 0.00 0.00 94 1026.1
20141122034511 14 293 16.0 20.0 0.13 0.00 0.00 94 1026.2
20141122034010 14 300 13.0 21.0 0.13 0.00 0.00 93 1026.2
20141122033510 14 302 14.0 20.0 0.13 0.00 0.00 93 1026.1
20141122033010 14 297 15.0 20.0 0.13 0.00 0.00 93 1026.4
20141122032510 14 302 16.0 21.0 0.13 0.00 0.00 93 1026.5
20141122032010 14 301 16.0 23.0 0.13 0.00 0.00 92 1026.5
20141122031510 13 298 15.0 22.0 0.13 0.00 0.00 92 1026.5
20141122031012 14 294 16.0 22.0 0.13 0.00 0.00 91 1026.5
20141122030510 14 302 16.0 21.0 0.13 0.00 0.00 91 1026.4
20141122030010 14 297 17.0 22.0 0.13 0.00 0.00 91 1026.5
20141122025510 14 297 18.0 24.0 0.13 0.00 0.00 91 1026.5
20141122025010 14 291 16.0 22.0 0.13 0.00 0.00 91 1026.6
20141122024510 14 305 15.0 22.0 0.13 0.00 0.00 91 1026.8
20141122024010 14 291 16.0 22.0 0.13 0.00 0.00 91 1026.9
20141122023510 13 302 14.0 19.0 0.13 0.00 0.00 91 1026.8
20141122023010 14 298 15.0 22.0 0.13 0.00 0.00 91 1027.0
20141122022510 14 304 15.0 21.0 0.13 0.00 0.00 91 1027.0
20141122022010 14 297 17.0 23.0 0.13 0.00 0.00 91 1026.9
20141122021510 14 305 16.0 22.0 0.13 0.00 0.00 91 1026.9
20141122021011 14 297 15.0 20.0 0.13 0.00 0.00 91 1027.0
20141122020510 14 302 14.0 20.0 0.13 0.00 0.00 91 1026.9
20141122020011 14 301 13.0 21.0 0.13 0.00 0.00 91 1027.0
20141122015510 14 273 15.0 22.0 0.13 0.00 0.00 91 1027.0
20141122015010 14 300 14.0 23.0 0.13 0.00 0.00 90 1026.9
20141122014510 14 293 17.0 24.0 0.13 0.00 0.00 91 1027.0
20141122014010 14 288 16.0 22.0 0.13 0.00 0.00 91 1026.9
20141122013512 13 245 15.0 22.0 0.13 0.00 0.00 91 1026.9
20141122013010 13 278 15.0 20.0 0.13 0.00 0.00 91 1027.0
20141122012510 13 274 15.0 19.0 0.13 0.00 0.00 91 1027.2
20141122012010 13 266 15.0 19.0 0.13 0.00 0.00 91 1027.2
20141122011510 13 264 14.0 19.0 0.13 0.00 0.00 91 1027.2
20141122011012 13 273 15.0 20.0 0.13 0.00 0.00 91 1027.5
20141122010510 13 276 14.0 18.0 0.13 0.00 0.00 91 1027.5
20141122010010 13 274 13.0 17.0 0.13 0.00 0.00 90 1027.5
20141122005510 13 271 12.0 16.0 0.13 0.00 0.00 90 1027.7
20141122005010 13 266 11.0 16.0 0.13 0.00 0.00 90 1027.7
20141122004510 13 269 12.0 17.0 0.13 0.00 0.00 90 1027.8
20141122004010 13 300 13.0 19.0 0.13 0.00 0.00 90 1027.9
20141122003510 13 274 13.0 17.0 0.13 0.00 0.00 89 1027.7
20141122003010 13 271 12.0 16.0 0.13 0.00 0.00 90 1027.9
20141122002510 13 269 15.0 18.0 0.13 0.00 0.00 90 1027.9
20141122002011 13 270 14.0 17.0 0.13 0.00 0.00 90 1027.9
20141122001511 12 273 9.0 14.0 0.13 0.00 0.00 90 1027.9
20141122001010 12 242 10.0 13.0 0.13 0.00 0.00 89 1028.0
20141122000510 13 264 10.0 13.0 0.13 0.00 0.00 89 1028.0
20141122000010 13 273 11.0 16.0 0.13 0.00 0.00 89 1027.9
20141121235510 13 274 10.0 15.0 0.13 0.00 0.00 89 1028.1
20141121235011 13 266 9.0 16.0 0.13 0.00 0.00 88 1028.2
20141121234510 13 271 9.0 13.0 0.13 0.00 0.00 88 1028.2
20141121234011 13 267 9.0 12.0 0.13 0.00 0.00 88 1028.1
20141121233510 14 276 9.0 12.0 0.13 0.00 0.00 88 1028.1
20141121233010 13 257 9.0 15.0 0.13 0.00 0.00 87 1028.2
20141121232510 13 267 10.0 14.0 0.13 0.00 0.00 87 1028.4